Hourly Data Report for September 06, 2017

All times are specified in Local Standard Time (LST). Add 1 hour to adjust for Daylight Saving Time where and when it is observed.

KAMLOOPS A
BRITISH COLUMBIA

50°42'09.000" N
120°26'55.000" W
345.30 m
1163781
71887
YKA

Download Data

Hourly Data (September 2017)
Hourly Data Report for September 6, 2017
Temp Definition
°C
Dew Point Temp Definition
°C
Rel Hum Definition
%
Wind Dir Definition
10's deg

Wind Spd Definition
km/h
Visibility Definition
km
Stn Press Definition
kPa
Hmdx Definition


Wind Chill Definition


Weather Definition


TIME
00:00 Legend Double Dagger 20.6 12.3 59 36 2 24.1 97.56     LegendNANA
01:00 Legend Double Dagger 19.0 12.1 64 36 2 24.1 97.57     Mostly Cloudy
02:00 Legend Double Dagger 17.2 12.5 73 36 2 24.1 97.59     LegendNANA
03:00 Legend Double Dagger 17.4 11.0 66 19 4 24.1 97.62     LegendNANA
04:00 Legend Double Dagger 16.9 11.2 69 36 2 24.1 97.62     Mostly Cloudy
05:00 Legend Double Dagger 16.7 10.2 65 0 1 24.1 97.64     LegendNANA
06:00 Legend Double Dagger 16.7 10.3 66 0 1 11.3 97.66     LegendNANA
07:00 Legend Double Dagger 16.9 11.5 70 36 3 11.3 97.68     Mostly Cloudy
08:00 Legend Double Dagger 18.8 12.4 66 36 2 11.3 97.68     LegendNANA
09:00 Legend Double Dagger 20.1 9.9 51 36 2 16.1 97.66     LegendNANA
10:00 Legend Double Dagger 21.2 10.1 49 14 5 16.1 97.60     Mostly Cloudy
11:00 Legend Double Dagger 22.6 9.5 43 9 8 48.3 97.53     LegendNANA
12:00 Legend Double Dagger 22.8 11.6 49 23 9 16.1 97.49 25   LegendNANA
13:00 Legend Double Dagger 25.2 10.1 38 11 8 12.9 97.38 27   Cloudy
14:00 Legend Double Dagger 26.4 9.8 35 14 4 16.1 97.26 28   LegendNANA
15:00 Legend Double Dagger 27.0 10.4 35 18 4 12.9 97.18 28   LegendNANA
16:00 Legend Double Dagger 27.3 10.6 35 36 1 12.9 97.12 29   Cloudy
17:00 Legend Double Dagger 26.3 13.4 45 33 3 12.9 97.05 29   LegendNANA
18:00 Legend Double Dagger 24.7 12.8 47 32 3 12.9 97.03 27   LegendNANA
19:00 Legend Double Dagger 20.1 14.1 68 28 6 12.9 97.05     Cloudy
20:00 Legend Double Dagger 19.7 12.9 64 36 4 16.1 97.08     LegendNANA
21:00 Legend Double Dagger 19.6 12.7 64 0 1 16.1 97.11     LegendNANA
22:00 Legend Double Dagger 17.7 11.8 68   0 16.1 97.16     Mostly Cloudy
23:00 Legend Double Dagger 18.5 10.4 59 1 4 16.1 97.17     LegendNANA

Notes on Data Quality.

Legend

  • E = Estimated
  • M = Missing
  • NA = Not Available
  • ‡ = Partner data that is not subject to review by the National Climate Archives
Date modified: